Weather History for KLBX - May, 2013

Change the Weather History Date:

Thursday, May 9, 2013

  Actual Average Record
Temperature  
Mean Temperature 75 °F -  
Max Temperature 79 °F 81 °F 89 °F (2011)
Min Temperature 71 °F 66 °F 60 °F (2001)
Cooling Degree Days 10    
Growing Degree Days 25 (Base 50)    
Moisture  
Dew Point 70 °F    
Average Humidity 86    
Maximum Humidity 94    
Minimum Humidity 74    
Precipitation  
Precipitation 0.00 in - - ()
Sea Level Pressure  
Sea Level Pressure 29.95 in    
Wind  
Wind Speed 12 mph (SSE)    
Max Wind Speed 21 mph    
Max Gust Speed 26 mph    
Visibility 9 miles    
Events Rain    
Averages and records for this station are not official NWS values.
T = Trace of Precipitation, MM = Missing Value Source: NWS Daily Summary

Daily Weather History Graph

Daily Weather History Graph

Search for Another Location

Airport or City:

Trip Planner

Search our weather history database for the weather conditions in past years. The results will help you decide how hot, cold, wet, or windy it might be!

Date:

Astronomy

May. 09, 2013 Rise Set
Actual Time 6:33 AM CDT 8:03 PM CDT
Civil Twilight 6:08 AM CDT 8:28 PM CDT
Nautical Twilight 5:37 AM CDT 8:59 PM CDT
Astronomical Twilight 5:05 AM CDT 9:31 PM CDT
Moon 6:16 AM CDT (5/9) 7:59 PM CDT (5/9)
Length of Visible Light 14h 20m
Length of Day
13h 29m
Waning Crescent, 0% of the Moon is Illuminated
May 9
Waning Crescent
May 9
New
May 17
First Quarter
May 24
Full
May 31
Last Quarter

Hourly Weather History & Observations

Time (CDT) Temp. Dew Point Humidity Pressure Visibility Wind Dir Wind Speed Gust Speed Precip Events Conditions
12:53 AM 71.1 °F 66.9 °F 87% 29.99 in 10.0 mi SSE 13.8 mph - N/A   Overcast
1:53 AM 71.1 °F 66.9 °F 87% 29.99 in 10.0 mi SSE 9.2 mph - N/A   Overcast
2:53 AM 72.0 °F 66.9 °F 84% 29.98 in 10.0 mi SSE 11.5 mph - N/A   Overcast
3:53 AM 72.0 °F 68.0 °F 87% 29.96 in 10.0 mi SE 8.1 mph - N/A   Overcast
4:31 AM 71.6 °F 68.0 °F 88% 29.95 in 10.0 mi SSE 8.1 mph - N/A   Overcast
4:53 AM 72.0 °F 68.0 °F 87% 29.95 in 10.0 mi SSE 9.2 mph - N/A   Overcast
5:53 AM 73.0 °F 69.1 °F 87% 29.95 in 10.0 mi SSE 11.5 mph - N/A   Overcast
6:06 AM 73.4 °F 69.8 °F 88% 29.95 in 10.0 mi SSE 12.7 mph - N/A   Overcast
6:15 AM 73.4 °F 69.8 °F 88% 29.95 in 10.0 mi SSE 10.4 mph - N/A   Overcast
6:53 AM 73.0 °F 70.0 °F 90% 29.96 in 10.0 mi SSE 12.7 mph - N/A   Overcast
7:35 AM 73.4 °F 69.8 °F 88% 29.97 in 10.0 mi SSE 6.9 mph - N/A   Overcast
7:53 AM 73.9 °F 71.1 °F 91% 29.99 in 10.0 mi South 9.2 mph - N/A   Overcast
8:15 AM 73.4 °F 69.8 °F 88% 29.99 in 10.0 mi South 8.1 mph - N/A   Overcast
8:53 AM 73.9 °F 70.0 °F 87% 30.00 in 10.0 mi SSE 10.4 mph - N/A   Overcast
9:18 AM 75.2 °F 71.6 °F 89% 30.00 in 10.0 mi SSE 9.2 mph - N/A   Overcast
9:53 AM 75.0 °F 71.1 °F 87% 30.00 in 2.0 mi SSE 17.3 mph - N/A   Overcast
10:03 AM 75.2 °F 71.6 °F 89% 30.00 in 2.5 mi SSE 15.0 mph - N/A   Overcast
10:16 AM 75.2 °F 71.6 °F 89% 30.00 in 9.0 mi South 13.8 mph - 0.00 in Rain Light Rain
10:53 AM 75.9 °F 71.1 °F 85% 30.00 in 10.0 mi SSE 15.0 mph 23.0 mph 0.00 in   Overcast
12:09 PM 78.8 °F 71.6 °F 78% 29.99 in 10.0 mi SSE 20.7 mph 26.5 mph N/A   Overcast
12:53 PM 79.0 °F 71.1 °F 77% 29.98 in 10.0 mi SSE 17.3 mph 24.2 mph N/A   Unknown
1:16 PM 78.8 °F 71.6 °F 78% 29.97 in 10.0 mi SSE 17.3 mph - N/A   Overcast
1:53 PM 78.1 °F 71.1 °F 79% 29.96 in 10.0 mi SSE 18.4 mph 24.2 mph N/A   Overcast
2:44 PM 78.8 °F 69.8 °F 74% 29.96 in 10.0 mi SSE 18.4 mph 25.3 mph N/A   Mostly Cloudy
3:53 PM 77.0 °F 70.0 °F 79% 29.94 in 10.0 mi SSE 12.7 mph - N/A   Overcast
4:05 PM 77.0 °F 69.8 °F 78% 29.92 in 10.0 mi SE 13.8 mph - N/A   Overcast
4:53 PM 75.9 °F 70.0 °F 82% 29.91 in 10.0 mi SSE 15.0 mph 21.9 mph N/A   Overcast
5:19 PM 75.2 °F 71.6 °F 89% 29.89 in 10.0 mi SE 15.0 mph 19.6 mph N/A   Overcast
5:38 PM 75.2 °F 71.6 °F 89% 29.88 in 10.0 mi SSE 9.2 mph - N/A   Overcast
5:53 PM 75.9 °F 71.1 °F 85% 29.88 in 10.0 mi SE 11.5 mph - N/A   Overcast
6:53 PM 75.9 °F 71.1 °F 85% 29.87 in 10.0 mi SSE 11.5 mph - N/A   Overcast
7:05 PM 75.2 °F 71.6 °F 89% 29.88 in 9.0 mi SSE 12.7 mph - N/A   Overcast
7:53 PM 75.0 °F 71.1 °F 87% 29.88 in 8.0 mi SSE 12.7 mph 20.7 mph N/A   Overcast
8:53 PM 73.9 °F 71.1 °F 91% 29.90 in 9.0 mi SE 9.2 mph - N/A   Overcast
9:53 PM 73.9 °F 72.0 °F 93% 29.90 in 5.0 mi SE 9.2 mph - 0.00 in Rain Light Rain
10:16 PM 73.4 °F 71.6 °F 94% 29.91 in 7.0 mi SSE 8.1 mph - 0.00 in   Overcast
10:53 PM 73.9 °F 72.0 °F 93% 29.92 in 7.0 mi SSE 5.8 mph - 0.00 in   Overcast